Weather History for Paso Robles, CA

Change the Weather History Date:

Wednesday, August 21, 2013

  Actual Average Record
Temperature  
Mean Temperature 70 °F 73 °F  
Max Temperature 90 °F 93 °F 107 °F (1982)
Min Temperature 50 °F 53 °F 43 °F (1959)
Degree Days  
Heating Degree Days 0 0  
Month to date heating degree days 0 0  
Since 1 June heating degree days 5 31  
Since 1 July heating degree days 0 4  
Cooling Degree Days 5 8  
Month to date cooling degree days 190 181  
Year to date cooling degree days 865 658  
Since 1 June cooling degree days 735 590  
Growing Degree Days 20 (Base 50)    
Moisture  
Dew Point 47 °F    
Average Humidity 52    
Maximum Humidity 86    
Minimum Humidity 17    
Precipitation  
Precipitation 0.00 in 0.01 in 0.00 in (2014)
Month to date precipitation 0.00 0.06  
Year to date precipitation 1.46 8.85  
Since 1 July precipitation T 0.06  
Sea Level Pressure  
Sea Level Pressure 29.89 in    
Wind  
Wind Speed 5 mph (SW)    
Max Wind Speed 16 mph    
Max Gust Speed 20 mph    
Visibility 10 miles    
Events      
T = Trace of Precipitation, MM = Missing Value Source: NWS Daily Summary

Daily Weather History Graph

Daily Weather History Graph

Search for Another Location

Airport:

Trip Planner

Search our weather history database for the weather conditions in past years. The results will help you decide how hot, cold, wet, or windy it might be!

Date:

Astronomy

Aug. 21, 2013 Rise Set
Actual Time 6:26 AM PDT 7:44 PM PDT
Civil Twilight 5:59 AM PDT 8:10 PM PDT
Nautical Twilight 5:27 AM PDT 8:42 PM PDT
Astronomical Twilight 4:54 AM PDT 9:15 PM PDT
Moon 8:00 PM PDT 7:08 AM PDT
Length of Visible Light 14h 10m
Length of Day
13h 17m
Full, 99% of the Moon is Illuminated
Aug 21
Full
Aug 28
Last Quarter
Sep 5
New
Sep 12
First Quarter
Sep 19
Full

Hourly Weather History & Observations

Time (PDT) Temp. Dew Point Humidity Pressure Visibility Wind Dir Wind Speed Gust Speed Precip Events Conditions
12:53 AM 57.9 °F 48.9 °F 72% 29.89 in 10.0 mi SW 3.5 mph - N/A   Clear
1:53 AM 57.0 °F 50.0 °F 77% 29.89 in 10.0 mi West 4.6 mph - N/A   Clear
2:53 AM 55.9 °F 50.0 °F 80% 29.89 in 10.0 mi Calm Calm - N/A   Clear
3:53 AM 52.0 °F 46.9 °F 83% 29.89 in 10.0 mi Calm Calm - N/A   Clear
4:53 AM 53.1 °F 46.9 °F 80% 29.89 in 10.0 mi Calm Calm - N/A   Clear
5:53 AM 51.1 °F 46.0 °F 83% 29.90 in 10.0 mi Calm Calm - N/A   Clear
6:53 AM 50.0 °F 46.0 °F 86% 29.91 in 10.0 mi Calm Calm - N/A   Clear
7:53 AM 55.0 °F 48.0 °F 77% 29.93 in 10.0 mi Calm Calm - N/A   Clear
8:53 AM 59.0 °F 48.9 °F 69% 29.92 in 10.0 mi SW 3.5 mph - N/A   Clear
9:53 AM 66.0 °F 50.0 °F 56% 29.92 in 10.0 mi Calm Calm - N/A   Clear
10:53 AM 73.0 °F 48.0 °F 41% 29.91 in 10.0 mi Calm Calm - N/A   Clear
11:53 AM 81.0 °F 44.1 °F 27% 29.89 in 10.0 mi West 4.6 mph - N/A   Clear
12:53 PM 86.0 °F 41.0 °F 20% 29.88 in 10.0 mi Calm Calm - N/A   Clear
1:53 PM 89.1 °F 42.1 °F 19% 29.86 in 10.0 mi SW 11.5 mph - N/A   Clear
2:53 PM 89.1 °F 39.0 °F 17% 29.85 in 10.0 mi SW 9.2 mph 17.3 mph N/A   Clear
3:53 PM 87.1 °F 42.1 °F 21% 29.84 in 10.0 mi SW 12.7 mph - N/A   Clear
4:53 PM 84.9 °F 45.0 °F 25% 29.83 in 10.0 mi SW 13.8 mph - N/A   Clear
5:53 PM 81.0 °F 48.0 °F 31% 29.84 in 10.0 mi SW 11.5 mph - N/A   Clear
6:53 PM 75.9 °F 48.9 °F 38% 29.85 in 10.0 mi SW 10.4 mph - N/A   Clear
7:53 PM 70.0 °F 50.0 °F 49% 29.87 in 10.0 mi SSW 9.2 mph - N/A   Clear
8:53 PM 66.0 °F 50.0 °F 56% 29.89 in 10.0 mi SSW 9.2 mph - N/A   Clear
9:53 PM 64.0 °F 50.0 °F 60% 29.90 in 10.0 mi SSW 10.4 mph - N/A   Clear
10:53 PM 62.1 °F 50.0 °F 65% 29.91 in 10.0 mi SW 5.8 mph - N/A   Clear
11:53 PM 61.0 °F 52.0 °F 72% 29.92 in 10.0 mi WNW 6.9 mph - N/A   Clear